Location: ???????
(55.3754°N, 39.3545°E)
Time: 21:27:38
(UTC+00:00)

Cosmos 1933 - Pass Details

Date: 14 April 2026
Orbit: 508 x 513 km, 82.5° (Epoch: 13 May)

Event Time Altitude Azimuth Distance (km) Brightness Sun altitude
Exits shadow 23:40:11 31° 277° (W) 916 4.2 -18.9°
Maximum altitude 23:40:35 32° 291° (WNW) 900 4.2 -18.9°
Drops below altitude 10° 23:44:03 10° 356° (N) 1,742 6.6 -18.6°
Sets 23:46:21 0° 7° (N) 2,632 7.8 -18.4°
